Regional Weather Roundup
Issued by NWS

Home | Current Version | Previous Version | Text Only | Print | Product List | Glossary Off
Versions: 1 2 3 4 5 6 7 8 9 10 11 12 13 14 15 16 17 18 19 20 21 22 23 24 25 26 27 28 29 30 31 32 33 34 35 36 37 38 39 40 41 42 43 44 45 46 47 48 49 50

000
ASUS43 KBIS 192010
RWRND

NORTH DAKOTA REGIONAL WEATHER ROUNDUP
NATIONAL WEATHER SERVICE BISMARCK ND
300 PM CDT SAT APR 19 2014

NOTE: "FAIR" INDICATES FEW OR NO CLOUDS BELOW 12,000 FEET WITH NO
SIGNIFICANT WEATHER AND/OR OBSTRUCTIONS TO VISIBILITY.


NDZ001>003-009>011-017-192100-
NORTHWEST NORTH DAKOTA

CITY           SKY/WX    TMP DP  RH WIND       PRES   REMARKS
WILLISTON      CLOUDY    56  33  42 W17G28    29.93R
MINOT          CLOUDY    49  34  56 W16G26    29.90R
MINOT AFB      CLOUDY    47  35  63 W18       29.90R
$$

NDZ018>021-031>035-040>046-192100-
SOUTHWEST NORTH DAKOTA

CITY           SKY/WX    TMP DP  RH WIND       PRES   REMARKS
BISMARCK       SUNNY     66  27  23 W22G28    29.92S
DICKINSON      SUNNY     59  32  36 NW21G29   29.93R
GARRISON         N/A     51  36  56 NW16G29   29.93R
HETTINGER ARPT SUNNY     62  29  28 W20G28    29.97S
$$

NDZ004>008-012>016-024-026-027-054-192100-
NORTHEAST NORTH DAKOTA

CITY           SKY/WX    TMP DP  RH WIND       PRES   REMARKS
GRAND FORKS    MOSUNNY   62  39  42 W22       29.84S
GRND FRKS AFB  SUNNY     61  37  40 W22G28    29.85R
DEVILS LAKE    CLOUDY    54  37  54 W26       29.87R
$$

NDZ022-023-025-028>030-036>039-047>053-192100-
SOUTHEAST NORTH DAKOTA

CITY           SKY/WX    TMP DP  RH WIND       PRES   REMARKS
FARGO          PTSUNNY   68  29  23 W22       29.89R
JAMESTOWN      SUNNY     65  31  28 NW22      29.88S
$$




USA.gov is the U.S. government's official web portal to all federal, state and local government web resources and services.